Tillbaka till svenska Fidonet
English   Information   Debug  
FILM   0/18
FNEWS_PUBLISH   4926
FN_SYSOP   42201
FN_SYSOP_OLD1   71952
FTP_FIDO   0/2
FTSC_PUBLIC   0/13973
FUNNY   0/4886
GENEALOGY.EUR   0/71
GET_INFO   105
GOLDED   0/408
HAM   5137/16661
HOLYSMOKE   0/6791
HOT_SITES   0/1
HTMLEDIT   0/71
HUB203   466
HUB_100   264
HUB_400   39
HUMOR   0/29
IC   0/2851
INTERNET   0/424
INTERUSER   0/3
IP_CONNECT   719
JAMNNTPD   0/233
JAMTLAND   0/47
KATTY_KORNER   0/41
LAN   0/16
LINUX-USER   0/19
LINUXHELP   0/1155
LINUX   0/22300
LINUX_BBS   0/957
mail   18.68
mail_fore_ok   249
MENSA   0/341
MODERATOR   0/102
MONTE   0/992
MOSCOW_OKLAHOMA   0/1245
MUFFIN   0/783
MUSIC   0/321
N203_STAT   938
N203_SYSCHAT   313
NET203   321
NET204   69
NET_DEV   0/10
NORD.ADMIN   0/101
NORD.CHAT   0/2572
NORD.FIDONET   189
NORD.HARDWARE   0/28
NORD.KULTUR   0/114
NORD.PROG   0/32
NORD.SOFTWARE   0/88
NORD.TEKNIK   0/58
NORD   0/453
OCCULT_CHAT   0/93
OS2BBS   0/787
OS2DOSBBS   0/580
OS2HW   0/42
OS2INET   0/37
OS2LAN   0/134
OS2PROG   0/36
OS2REXX   0/113
OS2USER-L   207
OS2   0/4830
OSDEBATE   0/18996
PASCAL   0/490
PERL   0/457
PHP   0/45
POINTS   0/405
POLITICS   0/29554
POL_INC   0/14731
PSION   103
R20_ADMIN   1133
R20_AMATORRADIO   0/2
R20_BEST_OF_FIDONET   16
R20_CHAT   0/896
R20_DEPP   0/3
R20_DEV   400
R20_ECHO2   1831
R20_ECHOPRES   0/35
R20_ESTAT   0/719
R20_FIDONETPROG...
...RAM.MYPOINT
  0/2
R20_FIDONETPROGRAM   0/22
R20_FIDONET   0/248
R20_FILEFIND   0/24
R20_FILEFOUND   0/22
R20_HIFI   0/3
R20_INFO2   3724
R20_INTERNET   0/12940
R20_INTRESSE   0/60
R20_INTR_KOM   0/99
R20_KANDIDAT.CHAT   42
R20_KANDIDAT   28
R20_KOM_DEV   112
R20_KONTROLL   0/13360
R20_KORSET   0/18
R20_LOKALTRAFIK   0/24
R20_MODERATOR   0/1852
R20_NC   76
R20_NET200   245
R20_NETWORK.OTH...
...ERNETS
  0/13
R20_OPERATIVSYS...
...TEM.LINUX
  0/44
R20_PROGRAMVAROR   0/1
R20_REC2NEC   534
R20_SFOSM   0/341
R20_SF   0/108
R20_SPRAK.ENGLISH   0/1
R20_SQUISH   107
R20_TEST   2
R20_WORST_OF_FIDONET   20
RAR   0/9
RA_MULTI   106
RA_UTIL   0/162
REGCON.EUR   0/2068
REGCON   0/13
SCIENCE   0/1206
SF   0/239
SHAREWARE_SUPPORT   0/5146
SHAREWRE   0/14
SIMPSONS   0/169
STATS_OLD1   0/2539.065
STATS_OLD2   0/2530
STATS_OLD3   0/2395.095
STATS_OLD4   0/1692.25
SURVIVOR   0/495
SYSOPS_CORNER   0/3
SYSOP   0/84
TAGLINES   0/112
TEAMOS2   0/4530
TECH   0/2617
TEST.444   0/105
TRAPDOOR   0/19
TREK   0/755
TUB   0/290
UFO   0/40
UNIX   0/1316
USA_EURLINK   0/102
USR_MODEMS   0/1
VATICAN   0/2740
VIETNAM_VETS   0/14
VIRUS   0/378
VIRUS_INFO   0/201
VISUAL_BASIC   0/473
WHITEHOUSE   0/5187
WIN2000   0/101
WIN32   0/30
WIN95   0/4291
WIN95_OLD1   0/70272
WINDOWS   0/1517
WWB_SYSOP   0/419
WWB_TECH   0/810
ZCC-PUBLIC   0/1
ZEC   4

 
4DOS   0/134
ABORTION   0/7
ALASKA_CHAT   0/506
ALLFIX_FILE   0/1313
ALLFIX_FILE_OLD1   0/7997
ALT_DOS   0/152
AMATEUR_RADIO   0/1039
AMIGASALE   0/14
AMIGA   0/331
AMIGA_INT   0/1
AMIGA_PROG   0/20
AMIGA_SYSOP   0/26
ANIME   0/15
ARGUS   0/924
ASCII_ART   0/340
ASIAN_LINK   0/651
ASTRONOMY   0/417
AUDIO   0/92
AUTOMOBILE_RACING   0/105
BABYLON5   0/17862
BAG   135
BATPOWER   0/361
BBBS.ENGLISH   0/382
BBSLAW   0/109
BBS_ADS   0/5290
BBS_INTERNET   0/507
BIBLE   0/3563
BINKD   0/1119
BINKLEY   0/215
BLUEWAVE   0/2173
CABLE_MODEMS   0/25
CBM   0/46
CDRECORD   0/66
CDROM   0/20
CLASSIC_COMPUTER   0/378
COMICS   0/15
CONSPRCY   0/899
COOKING   41456
COOKING_OLD1   15223/24719
COOKING_OLD2   0/40862
COOKING_OLD3   0/37489
COOKING_OLD4   0/35496
COOKING_OLD5   9370
C_ECHO   0/189
C_PLUSPLUS   0/31
DIRTY_DOZEN   0/201
DOORGAMES   0/2287
DOS_INTERNET   0/196
duplikat   6102
ECHOLIST   0/18295
EC_SUPPORT   0/318
ELECTRONICS   0/359
ELEKTRONIK.GER   1534
ENET.LINGUISTIC   0/13
ENET.POLITICS   0/4
ENET.SOFT   0/11701
ENET.SYSOP   34296
ENET.TALKS   0/32
ENGLISH_TUTOR   0/2000
EVOLUTION   0/1335
FDECHO   0/217
FDN_ANNOUNCE   0/7068
FIDONEWS   25062
FIDONEWS_OLD1   0/49742
FIDONEWS_OLD2   0/35949
FIDONEWS_OLD3   0/30874
FIDONEWS_OLD4   0/37224
FIDO_SYSOP   12922
FIDO_UTIL   0/180
FILEFIND   0/209
FILEGATE   0/212
Möte HAM, 16661 texter
 lista första sista föregående nästa
Text 2414, 815 rader
Skriven 2008-08-01 10:00:24 av Amsat List (1:323/120.0)
Ärende: [keps]  orb08213.amsa
=============================
[keps]  orb08213.amsa

Return-Path: <keps-bounces@amsat.org>
X-Rcpt: craig.healy@chowda.com
X-UIDL: 1217597568.10

SB KEPS @ AMSAT  $ORB08213.O
Orbital Elements  08213.OSCAR

HR AMSAT ORBITAL ELEMENTS FOR OSCAR SATELLITES
FROM WA5QGD FORT WORTH,TX July 31, 2008
Send Subscribe/unsubscribe to KEPS at 
http://www.amsat.org/mailman/listinfo/keps
BID: ORB08213.O
TO ALL RADIO AMATEURS BT

Satellite: AO-07
Catalog number: 07530
Epoch time:      08212.62851404
Element set:     240
Inclination:      101.4629 deg
RA of node:       242.6681 deg
Eccentricity:    0.0011732
Arg of perigee:   176.0916 deg
Mean anomaly:     184.0239 deg
Mean motion:   12.53573812 rev/day
Decay rate:       -2.7e-07 rev/day^2
Epoch rev:           54242
Checksum:              269

Satellite: AO-10
Catalog number: 14129
Epoch time:      08211.94988587
Element set:    0537
Inclination:      026.0102 deg
RA of node:       203.1067 deg
Eccentricity:    0.5973370
Arg of perigee:   144.3184 deg
Mean anomaly:     276.5106 deg
Mean motion:   02.05869982 rev/day
Decay rate:      -2.29e-06 rev/day^2
Epoch rev:           18898
Checksum:              326

Satellite: UO-11
Catalog number: 14781
Epoch time:      08212.80331150
Element set:     732
Inclination:      098.1524 deg
RA of node:       247.4829 deg
Eccentricity:    0.0008245
Arg of perigee:   297.7726 deg
Mean anomaly:     062.2642 deg
Mean motion:   14.79655298 rev/day
Decay rate:        2.4e-07 rev/day^2
Epoch rev:           31030
Checksum:              295

Satellite: RS-15
Catalog number: 23439
Epoch time:      08212.82748336
Element set:    0182
Inclination:      064.8153 deg
RA of node:       064.4775 deg
Eccentricity:    0.0147114
Arg of perigee:   114.3857 deg
Mean anomaly:     247.2500 deg
Mean motion:   11.27552623 rev/day
Decay rate:       -3.9e-07 rev/day^2
Epoch rev:           55988
Checksum:              312

Satellite: FO-29
Catalog number: 24278
Epoch time:      08213.79001791
Element set:     827
Inclination:      098.5831 deg
RA of node:       124.2408 deg
Eccentricity:    0.0351372
Arg of perigee:   100.1014 deg
Mean anomaly:     263.9949 deg
Mean motion:   13.52938469 rev/day
Decay rate:       -2.3e-07 rev/day^2
Epoch rev:           59042
Checksum:              311

Satellite: SO-33
Catalog number: 25509
Epoch time:      08212.73753080
Element set:     253
Inclination:      031.4314 deg
RA of node:       070.0993 deg
Eccentricity:    0.0354194
Arg of perigee:   047.9894 deg
Mean anomaly:     315.0330 deg
Mean motion:   14.28218629 rev/day
Decay rate:        4.2e-07 rev/day^2
Epoch rev:           50984
Checksum:              295

Satellite: AO-40
Catalog number: 26609
Epoch time:      08211.80047665
Element set:    0097
Inclination:      007.6455 deg
RA of node:       069.4909 deg
Eccentricity:    0.7924723
Arg of perigee:   106.6070 deg
Mean anomaly:     344.8419 deg
Mean motion:   01.25583268 rev/day
Decay rate:      -2.89e-06 rev/day^2
Epoch rev:           03557
Checksum:              332

Satellite: VO-52
Catalog number: 28650
Epoch time:      08213.71340156
Element set:     994
Inclination:      097.7867 deg
RA of node:       279.0962 deg
Eccentricity:    0.0027259
Arg of perigee:   358.0440 deg
Mean anomaly:     002.0637 deg
Mean motion:   14.81486181 rev/day
Decay rate:        2.4e-07 rev/day^2
Epoch rev:           17519
Checksum:              319

Satellite: PO-63
Catalog number: 29712
Epoch time:      08213.77206681
Element set:     667
Inclination:      097.8725 deg
RA of node:       271.1167 deg
Eccentricity:    0.0013028
Arg of perigee:   234.9850 deg
Mean anomaly:     125.0126 deg
Mean motion:   14.80225464 rev/day
Decay rate:       3.51e-06 rev/day^2
Epoch rev:            8406
Checksum:              298

/EX
SB KEPS @ AMSAT  $ORB08213.D
Orbital Elements  08213.MICROS

HR AMSAT ORBITAL ELEMENTS FOR THE MICROSATS
FROM WA5QGD FORT WORTH,TX July 31, 2008
Send Subscribe/unsubscribe to KEPS at 
http://www.amsat.org/mailman/listinfo/keps
BID: ORB08213.D
TO ALL RADIO AMATEURS BT

Satellite: AO-16
Catalog number: 20439
Epoch time:      08213.51619457
Element set:     382
Inclination:      098.2332 deg
RA of node:       191.3194 deg
Eccentricity:    0.0011889
Arg of perigee:   047.7558 deg
Mean anomaly:     312.4638 deg
Mean motion:   14.31799278 rev/day
Decay rate:        3.0e-08 rev/day^2
Epoch rev:           96726
Checksum:              331

Satellite: LO-19
Catalog number: 20442
Epoch time:      08213.55615528
Element set:     307
Inclination:      098.2035 deg
RA of node:       199.7591 deg
Eccentricity:    0.0012649
Arg of perigee:   045.9676 deg
Mean anomaly:     314.2556 deg
Mean motion:   14.32037816 rev/day
Decay rate:       1.01e-06 rev/day^2
Epoch rev:           96742
Checksum:              311

Satellite: AO-27
Catalog number: 22825
Epoch time:      08212.88528184
Element set:    0030
Inclination:      098.3861 deg
RA of node:       171.2747 deg
Eccentricity:    0.0009156
Arg of perigee:   127.8072 deg
Mean anomaly:     232.3921 deg
Mean motion:   14.29243280 rev/day
Decay rate:      -1.01e-06 rev/day^2
Epoch rev:           77401
Checksum:              289

Satellite: IO-26
Catalog number: 22826
Epoch time:      08212.51175627
Element set:    0737
Inclination:      098.3797 deg
RA of node:       171.8053 deg
Eccentricity:    0.0009548
Arg of perigee:   125.0172 deg
Mean anomaly:     235.1908 deg
Mean motion:   14.29493011 rev/day
Decay rate:        6.0e-08 rev/day^2
Epoch rev:           77405
Checksum:              307

